| time (UTC) | temp F | wind direction | speed MPH | gust MPH | rain 1hr in | rain 24hr in | rain mn in | humidity % | barometer mb |
| 20260507083009 | 67 | 272 | 1.0 | 2.0 | 0.00 | 0.16 | 0.00 | 73 | 1013.7 |
| 20260507082407 | 65 | 286 | 1.0 | 3.0 | 0.00 | 0.16 | 0.00 | 74 | 1013.7 |
| 20260507081809 | 64 | 210 | 0.0 | 0.0 | 0.00 | 0.16 | 0.00 | 76 | 1013.6 |
| 20260507081208 | 64 | 239 | 0.0 | 1.0 | 0.00 | 0.16 | 0.00 | 81 | 1013.7 |
| 20260507075409 | 63 | 233 | 0.0 | 2.0 | 0.00 | 0.16 | 0.00 | 83 | 1013.6 |
| 20260507074808 | 64 | 250 | 2.0 | 2.0 | 0.00 | 0.16 | 0.00 | 82 | 1013.6 |
| 20260507074207 | 64 | 229 | 3.0 | 4.0 | 0.00 | 0.16 | 0.00 | 82 | 1013.5 |
| 20260507073007 | 62 | 227 | 2.0 | 5.0 | 0.00 | 0.16 | 0.00 | 88 | 1013.5 |
| 20260507072410 | 62 | 237 | 1.0 | 3.0 | 0.00 | 0.16 | 0.00 | 88 | 1013.4 |
| 20260507071807 | 63 | 231 | 2.0 | 3.0 | 0.00 | 0.16 | 0.00 | 87 | 1013.4 |
| 20260507071207 | 62 | 243 | 3.0 | 4.0 | 0.00 | 0.16 | 0.00 | 86 | 1013.3 |
| 20260507065410 | 66 | 322 | 1.0 | 2.0 | 0.00 | 0.16 | 0.00 | 78 | 1013.2 |
| 20260507064807 | 66 | 42 | 0.0 | 0.0 | 0.00 | 0.16 | 0.00 | 78 | 1013.2 |
| 20260507064208 | 64 | 53 | 1.0 | 3.0 | 0.00 | 0.16 | 0.00 | 82 | 1013.2 |
| 20260507063009 | 64 | 54 | 0.0 | 2.0 | 0.00 | 0.16 | 0.00 | 82 | 1013.1 |
| 20260507062407 | 65 | 334 | 0.0 | 2.0 | 0.00 | 0.16 | 0.00 | 82 | 1013.1 |
| 20260507061807 | 66 | 276 | 0.0 | 0.0 | 0.00 | 0.16 | 0.00 | 80 | 1013.1 |
| 20260507061207 | 64 | 270 | 0.0 | 0.0 | 0.00 | 0.16 | 0.00 | 81 | 1013.1 |
| 20260507055408 | 60 | 270 | 0.0 | 0.0 | 0.00 | 0.16 | 0.00 | 92 | 1013.1 |
| 20260507054810 | 59 | 270 | 0.0 | 0.0 | 0.00 | 0.16 | 0.00 | 94 | 1013.0 |
| 20260507054207 | 58 | 270 | 0.0 | 1.0 | 0.00 | 0.17 | 0.00 | 95 | 1012.8 |
| 20260507053007 | 57 | 276 | 0.0 | 0.0 | 0.00 | 0.17 | 0.00 | 96 | 1012.8 |
| 20260507052409 | 57 | 276 | 0.0 | 2.0 | 0.00 | 0.17 | 0.00 | 96 | 1012.8 |
| 20260507051809 | 57 | 282 | 0.0 | 0.0 | 0.00 | 0.17 | 0.00 | 96 | 1012.7 |
| 20260507051207 | 57 | 282 | 0.0 | 0.0 | 0.00 | 0.17 | 0.00 | 96 | 1012.7 |
| 20260507045410 | 56 | 282 | 0.0 | 0.0 | 0.00 | 0.19 | 0.00 | 96 | 1012.6 |
| 20260507044807 | 56 | 282 | 0.0 | 0.0 | 0.00 | 0.19 | 0.00 | 96 | 1012.4 |
| 20260507044209 | 56 | 282 | 0.0 | 0.0 | 0.00 | 0.19 | 0.00 | 96 | 1012.4 |
| 20260507043008 | 55 | 285 | 0.0 | 0.0 | 0.00 | 0.19 | 0.00 | 96 | 1012.3 |
| 20260507042409 | 56 | 285 | 0.0 | 0.0 | 0.00 | 0.19 | 0.00 | 96 | 1012.2 |
| 20260507041807 | 55 | 285 | 0.0 | 0.0 | 0.00 | 0.19 | 0.00 | 96 | 1012.1 |
| 20260507041210 | 55 | 285 | 0.0 | 0.0 | 0.00 | 0.19 | 0.00 | 96 | 1012.0 |
| 20260507035407 | 55 | 285 | 0.0 | 0.0 | 0.00 | 0.19 | 0.00 | 96 | 1011.9 |
| 20260507034807 | 55 | 285 | 0.0 | 0.0 | 0.00 | 0.19 | 0.00 | 96 | 1011.7 |
| 20260507034207 | 55 | 285 | 0.0 | 0.0 | 0.00 | 0.19 | 0.00 | 96 | 1011.7 |
| 20260507033007 | 55 | 285 | 0.0 | 0.0 | 0.00 | 0.19 | 0.00 | 96 | 1011.7 |
| 20260507032407 | 55 | 285 | 0.0 | 0.0 | 0.00 | 0.19 | 0.00 | 96 | 1011.8 |
| 20260507031808 | 55 | 285 | 0.0 | 0.0 | 0.00 | 0.19 | 0.00 | 96 | 1011.8 |
| 20260507031207 | 55 | 285 | 0.0 | 0.0 | 0.00 | 0.19 | 0.00 | 96 | 1011.8 |
| 20260507025408 | 55 | 285 | 0.0 | 0.0 | 0.00 | 0.19 | 0.00 | 96 | 1011.8 |
| 20260507024807 | 55 | 285 | 0.0 | 0.0 | 0.00 | 0.19 | 0.00 | 96 | 1011.7 |
| 20260507024207 | 56 | 285 | 0.0 | 0.0 | 0.00 | 0.19 | 0.00 | 96 | 1011.6 |
| 20260507023007 | 56 | 285 | 0.0 | 0.0 | 0.00 | 0.19 | 0.00 | 96 | 1011.6 |
| 20260507022409 | 56 | 285 | 0.0 | 0.0 | 0.00 | 0.19 | 0.00 | 96 | 1011.7 |
| 20260507021807 | 56 | 285 | 0.0 | 0.0 | 0.00 | 0.19 | 0.00 | 96 | 1011.7 |
| 20260507021207 | 56 | 285 | 0.0 | 0.0 | 0.00 | 0.19 | 0.00 | 96 | 1011.7 |
| 20260507015407 | 57 | 285 | 0.0 | 0.0 | 0.00 | 0.19 | 0.00 | 96 | 1011.5 |
| 20260507014809 | 57 | 285 | 0.0 | 0.0 | 0.00 | 0.19 | 0.00 | 96 | 1011.5 |
| 20260507014207 | 57 | 285 | 0.0 | 1.0 | 0.00 | 0.19 | 0.00 | 96 | 1011.5 |
| 20260507013610 | 57 | 294 | 1.0 | 2.0 | 0.00 | 0.19 | 0.00 | 96 | 1011.6 |
| 20260507013007 | 57 | 300 | 0.0 | 2.0 | 0.00 | 0.19 | 0.00 | 96 | 1011.6 |
| 20260507012407 | 57 | 300 | 0.0 | 2.0 | 0.00 | 0.19 | 0.00 | 95 | 1011.7 |
| 20260507011807 | 57 | 294 | 1.0 | 2.0 | 0.00 | 0.19 | 0.00 | 95 | 1011.6 |
| 20260507011209 | 57 | 294 | 0.0 | 2.0 | 0.00 | 0.19 | 0.00 | 95 | 1011.7 |
| 20260507005408 | 58 | 299 | 0.0 | 3.0 | 0.00 | 0.19 | 0.00 | 95 | 1011.7 |
| 20260507004807 | 58 | 288 | 0.0 | 2.0 | 0.00 | 0.19 | 0.00 | 94 | 1011.7 |
| 20260507004207 | 58 | 354 | 0.0 | 2.0 | 0.00 | 0.19 | 0.00 | 94 | 1011.7 |
| 20260507003607 | 58 | 66 | 1.0 | 2.0 | 0.00 | 0.19 | 0.00 | 94 | 1011.6 |
| 20260507003007 | 58 | 72 | 0.0 | 0.0 | 0.00 | 0.19 | 0.00 | 94 | 1011.5 |
| 20260507002407 | 58 | 78 | 1.0 | 2.0 | 0.00 | 0.19 | 0.00 | 94 | 1011.4 |
| 20260507001808 | 58 | 73 | 0.0 | 2.0 | 0.00 | 0.19 | 0.00 | 94 | 1011.4 |
| 20260507001209 | 58 | 4 | 1.0 | 2.0 | 0.00 | 0.19 | 0.00 | 94 | 1011.4 |
| 20260506235407 | 58 | 57 | 0.0 | 0.0 | 0.00 | 0.19 | 0.00 | 94 | 1011.7 |
| 20260506234807 | 58 | 57 | 0.0 | 0.0 | 0.00 | 0.19 | 0.00 | 94 | 1011.8 |
| 20260506234208 | 58 | 57 | 0.0 | 0.0 | 0.00 | 0.19 | 0.00 | 94 | 1011.6 |
| 20260506233607 | 57 | 57 | 0.0 | 0.0 | 0.00 | 0.19 | 0.00 | 94 | 1011.7 |
| 20260506233010 | 57 | 57 | 0.0 | 0.0 | 0.00 | 0.19 | 0.00 | 94 | 1011.6 |
| 20260506232410 | 58 | 57 | 2.0 | 2.0 | 0.00 | 0.19 | 0.00 | 94 | 1011.6 |
| 20260506231807 | 58 | 72 | 0.0 | 0.0 | 0.00 | 0.19 | 0.00 | 94 | 1011.5 |
| 20260506231210 | 58 | 72 | 0.0 | 0.0 | 0.00 | 0.19 | 0.00 | 94 | 1011.5 |
| 20260506230607 | 58 | 72 | 0.0 | 0.0 | 0.00 | 0.19 | 0.00 | 94 | 1011.6 |
| 20260506225407 | 58 | 61 | 0.0 | 0.0 | 0.00 | 0.19 | 0.00 | 94 | 1011.6 |
| 20260506224808 | 58 | 61 | 0.0 | 0.0 | 0.00 | 0.19 | 0.00 | 94 | 1011.5 |
| 20260506224209 | 58 | 61 | 0.0 | 2.0 | 0.00 | 0.19 | 0.00 | 93 | 1011.5 |
| 20260506223607 | 58 | 61 | 3.0 | 4.0 | 0.00 | 0.19 | 0.00 | 93 | 1011.5 |
| 20260506223007 | 58 | 56 | 0.0 | 0.0 | 0.00 | 0.19 | 0.00 | 93 | 1011.5 |
| 20260506222407 | 58 | 60 | 0.0 | 0.0 | 0.00 | 0.19 | 0.00 | 93 | 1011.5 |
| 20260506221810 | 58 | 56 | 0.0 | 0.0 | 0.00 | 0.19 | 0.00 | 93 | 1011.5 |
| 20260506221207 | 58 | 56 | 0.0 | 0.0 | 0.00 | 0.19 | 0.00 | 93 | 1011.6 |
| 20260506220607 | 58 | 56 | 0.0 | 0.0 | 0.00 | 0.19 | 0.00 | 93 | 1011.5 |
| 20260506215407 | 59 | 65 | 0.0 | 0.0 | 0.00 | 0.19 | 0.19 | 93 | 1011.4 |
| 20260506214807 | 58 | 68 | 0.0 | 2.0 | 0.00 | 0.19 | 0.19 | 93 | 1011.3 |
| 20260506214208 | 59 | 72 | 0.0 | 0.0 | 0.00 | 0.19 | 0.19 | 92 | 1011.3 |
| 20260506213610 | 59 | 72 | 0.0 | 0.0 | 0.00 | 0.19 | 0.19 | 92 | 1011.3 |
| 20260506213007 | 59 | 72 | 0.0 | 0.0 | 0.00 | 0.19 | 0.19 | 92 | 1011.4 |
| 20260506212407 | 59 | 70 | 0.0 | 1.0 | 0.00 | 0.19 | 0.19 | 92 | 1011.4 |
| 20260506211807 | 59 | 70 | 1.0 | 2.0 | 0.00 | 0.19 | 0.19 | 92 | 1011.4 |
| 20260506211207 | 59 | 70 | 1.0 | 2.0 | 0.00 | 0.19 | 0.19 | 92 | 1011.3 |
| 20260506210607 | 59 | 70 | 0.0 | 1.0 | 0.00 | 0.19 | 0.19 | 92 | 1011.3 |
| 20260506205408 | 59 | 70 | 0.0 | 0.0 | 0.00 | 0.19 | 0.19 | 91 | 1011.2 |
| 20260506204807 | 60 | 73 | 2.0 | 3.0 | 0.00 | 0.19 | 0.19 | 91 | 1011.3 |
| 20260506204207 | 60 | 74 | 3.0 | 4.0 | 0.00 | 0.19 | 0.19 | 91 | 1011.4 |
| 20260506203610 | 60 | 69 | 2.0 | 4.0 | 0.00 | 0.19 | 0.19 | 91 | 1011.4 |
| 20260506203009 | 60 | 69 | 0.0 | 1.0 | 0.00 | 0.19 | 0.19 | 92 | 1011.3 |
| 20260506202409 | 60 | 69 | 2.0 | 3.0 | 0.00 | 0.19 | 0.19 | 91 | 1011.3 |
| 20260506201807 | 60 | 77 | 3.0 | 4.0 | 0.00 | 0.19 | 0.19 | 92 | 1011.2 |
| 20260506201208 | 60 | 82 | 2.0 | 4.0 | 0.00 | 0.19 | 0.19 | 92 | 1011.1 |
| 20260506200610 | 60 | 70 | 1.0 | 2.0 | 0.00 | 0.19 | 0.19 | 92 | 1011.1 |
| 20260506195407 | 60 | 30 | 2.0 | 4.0 | 0.00 | 0.19 | 0.19 | 92 | 1010.9 |
| 20260506194807 | 60 | 38 | 2.0 | 2.0 | 0.00 | 0.19 | 0.19 | 92 | 1010.8 |
| 20260506194210 | 60 | 67 | 1.0 | 2.0 | 0.00 | 0.19 | 0.19 | 92 | 1010.8 |
| 20260506193607 | 60 | 67 | 0.0 | 2.0 | 0.00 | 0.19 | 0.19 | 92 | 1010.8 |
| 20260506193009 | 61 | 70 | 0.0 | 2.0 | 0.00 | 0.19 | 0.19 | 92 | 1010.7 |
| 20260506192410 | 61 | 69 | 0.0 | 4.0 | 0.00 | 0.19 | 0.19 | 92 | 1010.8 |
| 20260506191807 | 61 | 70 | 1.0 | 3.0 | 0.00 | 0.19 | 0.19 | 92 | 1010.8 |
| 20260506191207 | 61 | 76 | 2.0 | 4.0 | 0.00 | 0.19 | 0.19 | 92 | 1010.6 |
| 20260506190608 | 61 | 67 | 3.0 | 4.0 | 0.00 | 0.19 | 0.19 | 92 | 1010.7 |
| 20260506185410 | 61 | 68 | 3.0 | 4.0 | 0.00 | 0.19 | 0.19 | 91 | 1010.4 |
| 20260506184807 | 62 | 77 | 2.0 | 2.0 | 0.00 | 0.19 | 0.19 | 91 | 1010.4 |
| 20260506184207 | 62 | 58 | 3.0 | 5.0 | 0.00 | 0.19 | 0.19 | 90 | 1010.4 |
| 20260506183610 | 62 | 64 | 4.0 | 5.0 | 0.00 | 0.19 | 0.19 | 90 | 1010.3 |
| 20260506183008 | 62 | 65 | 5.0 | 6.0 | 0.00 | 0.19 | 0.19 | 90 | 1010.2 |
| 20260506182408 | 62 | 50 | 1.0 | 3.0 | 0.00 | 0.19 | 0.19 | 90 | 1010.2 |
| 20260506181807 | 63 | 62 | 0.0 | 0.0 | 0.00 | 0.19 | 0.19 | 90 | 1010.3 |
| 20260506181207 | 63 | 62 | 0.0 | 2.0 | 0.00 | 0.19 | 0.19 | 90 | 1010.3 |
| 20260506180607 | 63 | 63 | 0.0 | 0.0 | 0.00 | 0.19 | 0.19 | 89 | 1010.2 |
| 20260506175407 | 63 | 63 | 1.0 | 2.0 | 0.00 | 0.19 | 0.19 | 89 | 1010.1 |
| 20260506174807 | 63 | 69 | 0.0 | 2.0 | 0.00 | 0.19 | 0.19 | 89 | 1010.0 |
| 20260506174207 | 63 | 61 | 1.0 | 3.0 | 0.00 | 0.19 | 0.19 | 88 | 1009.9 |
| 20260506173607 | 63 | 77 | 2.0 | 4.0 | 0.00 | 0.19 | 0.19 | 88 | 1009.8 |
| 20260506173007 | 63 | 76 | 3.0 | 4.0 | 0.00 | 0.19 | 0.19 | 87 | 1009.9 |
| 20260506172407 | 63 | 77 | 2.0 | 2.0 | 0.00 | 0.19 | 0.19 | 87 | 1009.9 |
| 20260506171810 | 63 | 76 | 0.0 | 1.0 | 0.00 | 0.19 | 0.19 | 87 | 1009.9 |
| 20260506171207 | 63 | 57 | 1.0 | 2.0 | 0.00 | 0.19 | 0.19 | 87 | 1009.9 |
| 20260506170607 | 63 | 76 | 0.0 | 2.0 | 0.00 | 0.19 | 0.19 | 87 | 1009.7 |
| 20260506165407 | 63 | 76 | 2.0 | 2.0 | 0.00 | 0.19 | 0.19 | 86 | 1009.8 |
| 20260506164810 | 63 | 78 | 2.0 | 3.0 | 0.00 | 0.19 | 0.19 | 86 | 1009.8 |
| 20260506164207 | 63 | 79 | 1.0 | 2.0 | 0.00 | 0.19 | 0.19 | 85 | 1009.7 |
| 20260506163608 | 63 | 79 | 0.0 | 2.0 | 0.00 | 0.19 | 0.19 | 85 | 1009.8 |
| 20260506163010 | 63 | 79 | 3.0 | 4.0 | 0.00 | 0.19 | 0.19 | 85 | 1010.0 |
| 20260506162407 | 63 | 72 | 2.0 | 4.0 | 0.00 | 0.19 | 0.19 | 84 | 1010.0 |
| 20260506161807 | 64 | 62 | 0.0 | 2.0 | 0.00 | 0.19 | 0.19 | 85 | 1010.0 |
| 20260506161212 | 64 | 75 | 1.0 | 4.0 | 0.00 | 0.19 | 0.19 | 87 | 1009.9 |
| 20260506160608 | 64 | 87 | 1.0 | 2.0 | 0.00 | 0.19 | 0.19 | 88 | 1010.0 |
| 20260506155409 | 64 | 76 | 2.0 | 5.0 | 0.00 | 0.19 | 0.19 | 88 | 1010.0 |
| 20260506154807 | 63 | 66 | 3.0 | 3.0 | 0.00 | 0.19 | 0.19 | 88 | 1010.0 |
| 20260506154207 | 63 | 58 | 3.0 | 5.0 | 0.00 | 0.19 | 0.19 | 89 | 1009.8 |
| 20260506153610 | 64 | 76 | 1.0 | 2.0 | 0.00 | 0.19 | 0.19 | 89 | 1009.9 |
| 20260506153007 | 64 | 78 | 0.0 | 1.0 | 0.00 | 0.19 | 0.19 | 89 | 1009.9 |
| 20260506152407 | 63 | 80 | 0.0 | 2.0 | 0.00 | 0.19 | 0.19 | 89 | 1009.9 |
| 20260506151807 | 64 | 98 | 2.0 | 4.0 | 0.00 | 0.19 | 0.19 | 89 | 1009.8 |
| 20260506151207 | 63 | 86 | 2.0 | 5.0 | 0.00 | 0.19 | 0.19 | 89 | 1009.9 |
| 20260506150610 | 63 | 82 | 4.0 | 5.0 | 0.00 | 0.19 | 0.19 | 89 | 1010.0 |
| 20260506145408 | 63 | 62 | 1.0 | 2.0 | 0.00 | 0.19 | 0.19 | 90 | 1010.1 |
| 20260506144807 | 63 | 74 | 2.0 | 3.0 | 0.00 | 0.19 | 0.19 | 91 | 1010.1 |
| 20260506144209 | 63 | 67 | 2.0 | 2.0 | 0.02 | 0.19 | 0.19 | 90 | 1010.1 |
| 20260506143607 | 62 | 66 | 0.0 | 2.0 | 0.02 | 0.19 | 0.19 | 91 | 1010.0 |
| 20260506142407 | 62 | 80 | 2.0 | 3.0 | 0.05 | 0.19 | 0.19 | 92 | 1010.0 |
| 20260506141807 | 62 | 84 | 1.0 | 3.0 | 0.06 | 0.19 | 0.19 | 92 | 1010.0 |
| 20260506141208 | 62 | 62 | 2.0 | 4.0 | 0.06 | 0.19 | 0.19 | 92 | 1010.0 |
| 20260506140610 | 62 | 69 | 2.0 | 4.0 | 0.09 | 0.19 | 0.19 | 93 | 1010.0 |
| 20260506135407 | 61 | 68 | 0.0 | 2.0 | 0.13 | 0.20 | 0.19 | 94 | 1010.2 |
| 20260506134807 | 61 | 67 | 1.0 | 3.0 | 0.13 | 0.20 | 0.19 | 93 | 1010.3 |
| 20260506134214 | 61 | 81 | 3.0 | 4.0 | 0.11 | 0.19 | 0.17 | 93 | 1010.4 |
| 20260506133607 | 61 | 72 | 2.0 | 4.0 | 0.11 | 0.19 | 0.17 | 93 | 1010.5 |
| 20260506132410 | 61 | 85 | 3.0 | 5.0 | 0.08 | 0.16 | 0.14 | 92 | 1010.5 |
| 20260506131812 | 62 | 78 | 3.0 | 4.0 | 0.08 | 0.16 | 0.14 | 91 | 1010.6 |
| 20260506131207 | 62 | 79 | 2.0 | 4.0 | 0.06 | 0.14 | 0.13 | 91 | 1010.6 |
| 20260506130607 | 62 | 79 | 2.0 | 4.0 | 0.03 | 0.11 | 0.09 | 89 | 1010.6 |
| 20260506125407 | 63 | 143 | 1.0 | 2.0 | 0.00 | 0.08 | 0.06 | 87 | 1010.7 |
| 20260506124807 | 63 | 108 | 0.0 | 2.0 | 0.00 | 0.08 | 0.06 | 87 | 1010.6 |
| 20260506124207 | 63 | 80 | 3.0 | 5.0 | 0.00 | 0.08 | 0.06 | 86 | 1010.6 |
| 20260506123609 | 64 | 91 | 2.0 | 4.0 | 0.00 | 0.09 | 0.06 | 84 | 1010.7 |
| 20260506122413 | 64 | 84 | 2.0 | 3.0 | 0.00 | 0.09 | 0.06 | 81 | 1010.8 |
| 20260506121807 | 64 | 88 | 3.0 | 5.0 | 0.00 | 0.09 | 0.06 | 81 | 1010.8 |
| 20260506121208 | 65 | 88 | 2.0 | 2.0 | 0.00 | 0.09 | 0.06 | 81 | 1010.7 |
| 20260506120607 | 64 | 71 | 3.0 | 5.0 | 0.00 | 0.09 | 0.06 | 83 | 1010.8 |
| 20260506115408 | 64 | 69 | 1.0 | 2.0 | 0.00 | 0.09 | 0.06 | 82 | 1011.0 |
| 20260506114807 | 64 | 63 | 3.0 | 5.0 | 0.00 | 0.09 | 0.06 | 84 | 1011.1 |
| 20260506114207 | 64 | 74 | 2.0 | 4.0 | 0.00 | 0.09 | 0.06 | 83 | 1011.1 |
| 20260506113607 | 63 | 70 | 2.0 | 4.0 | 0.00 | 0.09 | 0.06 | 83 | 1011.0 |
| 20260506112407 | 63 | 71 | 2.0 | 4.0 | 0.00 | 0.09 | 0.06 | 83 | 1011.2 |
| 20260506111809 | 63 | 55 | 2.0 | 3.0 | 0.00 | 0.09 | 0.06 | 84 | 1011.4 |
| 20260506111207 | 63 | 92 | 1.0 | 2.0 | 0.00 | 0.09 | 0.06 | 85 | 1011.4 |
| 20260506110607 | 62 | 111 | 1.0 | 2.0 | 0.02 | 0.09 | 0.06 | 85 | 1011.4 |
| 20260506105407 | 62 | 94 | 2.0 | 3.0 | 0.02 | 0.09 | 0.06 | 87 | 1011.5 |
| 20260506104807 | 62 | 85 | 2.0 | 2.0 | 0.02 | 0.09 | 0.06 | 87 | 1011.6 |
| 20260506104207 | 62 | 48 | 2.0 | 3.0 | 0.03 | 0.09 | 0.06 | 87 | 1011.5 |
| 20260506103609 | 62 | 79 | 1.0 | 2.0 | 0.03 | 0.09 | 0.06 | 86 | 1011.7 |
| 20260506102409 | 62 | 71 | 1.0 | 2.0 | 0.03 | 0.09 | 0.06 | 85 | 1011.6 |
| 20260506102328 | 62 | 56 | 0.0 | 2.0 | 0.03 | 0.09 | 0.06 | 89 | 1011.7 |
| 20260506101807 | 62 | 56 | 0.0 | 2.0 | 0.03 | 0.09 | 0.06 | 89 | 1011.7 |
| 20260506101207 | 62 | 73 | 1.0 | 2.0 | 0.03 | 0.09 | 0.06 | 89 | 1011.8 |
| 20260506100607 | 62 | 134 | 0.0 | 2.0 | 0.02 | 0.08 | 0.05 | 89 | 1011.9 |
| 20260506095600 | 63 | 178 | 0.0 | 0.0 | 0.02 | 0.08 | 0.05 | 87 | 1011.7 |
| 20260506095408 | 62 | 174 | 0.0 | 0.0 | 0.02 | 0.08 | 0.05 | 88 | 1011.7 |
| 20260506094807 | 63 | 178 | 0.0 | 0.0 | 0.02 | 0.08 | 0.05 | 87 | 1011.7 |
| 20260506094209 | 63 | 178 | 1.0 | 2.0 | 0.00 | 0.08 | 0.03 | 86 | 1011.7 |
| 20260506093608 | 63 | 178 | 0.0 | 0.0 | 0.00 | 0.08 | 0.03 | 85 | 1011.7 |
| 20260506092409 | 64 | 184 | 2.0 | 2.0 | 0.00 | 0.09 | 0.03 | 79 | 1011.7 |
| 20260506091810 | 64 | 180 | 1.0 | 2.0 | 0.00 | 0.09 | 0.03 | 80 | 1011.7 |
| 20260506091209 | 64 | 190 | 0.0 | 0.0 | 0.00 | 0.09 | 0.03 | 80 | 1011.6 |
| 20260506090607 | 64 | 130 | 1.0 | 2.0 | 0.00 | 0.09 | 0.03 | 80 | 1011.7 |
| 20260506085407 | 65 | 190 | 0.0 | 0.0 | 0.00 | 0.09 | 0.03 | 78 | 1011.4 |
| 20260506084808 | 64 | 190 | 0.0 | 0.0 | 0.00 | 0.09 | 0.03 | 79 | 1011.3 |
| 20260506084208 | 64 | 190 | 0.0 | 0.0 | 0.00 | 0.09 | 0.03 | 82 | 1011.4 |
| 20260506083607 | 64 | 192 | 0.0 | 0.0 | 0.00 | 0.09 | 0.03 | 82 | 1011.3 |